Location: Newark
(40.7066°N, 111.8219°W)
Time: 18:07:08
(UTC+00:00)

Transit 2A Rocket - Pass Details

Date: 28 November 2019
Orbit: 594 x 909 km, 66.7° (Epoch: 08 December)

Event Time Altitude Azimuth Distance (km) Brightness Sun altitude
Rises 02:54:41 0° 213° (SSW) 3,065 8.5 -32.3°
Reaches altitude 10° 02:57:06 10° 216° (SW) 2,104 7.6 -32.7°
Enters shadow 02:58:33 19° 218° (SW) 1,543 6.9 -33.0°
Maximum altitude 03:01:48 71° 301° (WNW) 676 - -33.6°
Drops below altitude 10° 03:06:14 10° 25° (NNE) 1,976 - -34.5°
Sets 03:08:26 0° 28° (NNE) 2,863 - -34.9°
